HZA2 HAAB-FZIC

Flight info

Callsign HZA2
Flight time N/A
Altitude 38000
Route ETGOM2A ETGOM UL432 LOV DCT PATAR UN553 NALOS UT136 BUN/N0407F240 H1 OSBID DCT LEVKO LEVKO2C
Aircraft A320/M-SDE3FGHIRWY/LB1

Departure

Time 2026-04-27 20:19
Airport Addis Ababa Bole International Airport (HAAB)

Arrival

Time N/A
Airport Bangoka International Airport (FZIC)
Time Latitude Longitude Altitude Speed Heading
2026-04-27 20:00 8.97874 38.79142 7621 ft 0 kts 164°
2026-04-27 20:07 8.97882 38.79140 7621 ft 2 kts 164°
2026-04-27 20:08 8.97900 38.79135 7621 ft 3 kts 164°
2026-04-27 20:08 8.97923 38.79128 7623 ft 3 kts 164°
2026-04-27 20:08 8.97946 38.79121 7621 ft 4 kts 158°
2026-04-27 20:08 8.97954 38.79108 7622 ft 0 kts 73°
2026-04-27 20:11 8.97954 38.79110 7621 ft 2 kts 73°
2026-04-27 20:11 8.97973 38.79172 7622 ft 13 kts 72°
2026-04-27 20:11 8.98003 38.79270 7622 ft 15 kts 73°
2026-04-27 20:12 8.98035 38.79383 7622 ft 19 kts 73°
2026-04-27 20:12 8.98059 38.79469 7623 ft 19 kts 74°
2026-04-27 20:12 8.98109 38.79650 7627 ft 21 kts 75°
2026-04-27 20:12 8.98091 38.79764 7624 ft 18 kts 161°
2026-04-27 20:13 8.98012 38.79787 7624 ft 7 kts 160°
2026-04-27 20:13 8.97938 38.79814 7624 ft 14 kts 160°
2026-04-27 20:13 8.97828 38.79853 7627 ft 19 kts 161°
2026-04-27 20:13 8.97692 38.79901 7625 ft 20 kts 161°
2026-04-27 20:14 8.97681 38.79905 7625 ft 0 kts 161°
2026-04-27 20:14 8.97672 38.79902 7625 ft 4 kts 202°
2026-04-27 20:14 8.97653 38.79815 7624 ft 21 kts 260°
2026-04-27 20:14 8.97603 38.79633 7626 ft 29 kts 253°
2026-04-27 20:15 8.97542 38.79424 7627 ft 32 kts 253°
2026-04-27 20:15 8.97478 38.79200 7628 ft 34 kts 254°
2026-04-27 20:15 8.97412 38.78974 7631 ft 31 kts 253°
2026-04-27 20:15 8.97347 38.78754 7631 ft 34 kts 253°
2026-04-27 20:16 8.97278 38.78518 7632 ft 36 kts 253°
2026-04-27 20:16 8.97276 38.78348 7630 ft 17 kts 323°
2026-04-27 20:16 8.97384 38.78276 7615 ft 10 kts 327°
2026-04-27 20:16 8.97399 38.78271 7615 ft 3 kts
2026-04-27 20:17 8.97418 38.78314 7616 ft 0 kts 73°
2026-04-27 20:17 8.97420 38.78319 7616 ft 0 kts 73°
2026-04-27 20:17 8.97421 38.78320 7616 ft 1 kts 73°
2026-04-27 20:18 8.97428 38.78344 7616 ft 9 kts 72°
2026-04-27 20:18 8.97496 38.78574 7616 ft 72 kts 74°
2026-04-27 20:18 8.97703 38.79286 7617 ft 139 kts 73°
2026-04-27 20:18 8.98034 38.80412 7703 ft 184 kts 74°
2026-04-27 20:19 8.98378 38.81635 8528 ft 183 kts 75°
2026-04-27 20:19 8.98702 38.82831 9306 ft 182 kts 75°
2026-04-27 20:19 8.99043 38.84091 9773 ft 194 kts 75°
2026-04-27 20:19 8.99422 38.85478 9994 ft 216 kts 75°
2026-04-27 20:20 8.99843 38.87027 10231 ft 240 kts 75°
2026-04-27 20:20 9.00203 38.88718 10788 ft 250 kts 90°
2026-04-27 20:20 8.99708 38.90397 11457 ft 258 kts 125°
2026-04-27 20:20 8.98284 38.91512 12132 ft 267 kts 161°
2026-04-27 20:21 8.96429 38.91616 12831 ft 274 kts 196°
2026-04-27 20:21 8.94786 38.90669 13521 ft 276 kts 225°
2026-04-27 20:21 8.93529 38.89198 14281 ft 278 kts 235°
2026-04-27 20:21 8.92756 38.88157 14716 ft 281 kts 234°
2026-04-27 20:22 8.91572 38.86559 15398 ft 285 kts 234°
2026-04-27 20:22 8.90369 38.84953 16105 ft 288 kts 230°
2026-04-27 20:22 8.88781 38.83701 16619 ft 300 kts 205°
2026-04-27 20:22 8.86854 38.82896 17083 ft 319 kts 199°
2026-04-27 20:23 8.84683 38.82186 17210 ft 336 kts 197°
2026-04-27 20:23 8.82384 38.81507 17338 ft 352 kts 196°
2026-04-27 20:23 8.79977 38.80800 17465 ft 367 kts 197°
2026-04-27 20:23 8.77569 38.80066 17586 ft 380 kts 197°
2026-04-27 20:24 8.75009 38.79246 17755 ft 390 kts 198°
2026-04-27 20:24 8.72412 38.78379 18083 ft 396 kts 199°
2026-04-27 20:24 8.69794 38.77485 18466 ft 398 kts 199°
2026-04-27 20:24 8.67161 38.76576 18849 ft 401 kts 199°
2026-04-27 20:25 8.64510 38.75661 19212 ft 404 kts 199°
2026-04-27 20:25 8.61836 38.74744 19562 ft 407 kts 199°
2026-04-27 20:25 8.59148 38.73830 19910 ft 409 kts 199°
2026-04-27 20:25 8.56438 38.72915 20251 ft 411 kts 198°
2026-04-27 20:26 8.53713 38.72000 20560 ft 414 kts 198°
2026-04-27 20:26 8.50973 38.71080 20870 ft 416 kts 198°
2026-04-27 20:26 8.48221 38.70153 21165 ft 418 kts 199°
2026-04-27 20:26 8.45451 38.69216 21098 ft 418 kts 197°
2026-04-27 20:27 8.42707 38.68285 21909 ft 415 kts 197°
2026-04-27 20:27 8.39965 38.67356 22534 ft 417 kts 197°
2026-04-27 20:27 8.37210 38.66424 23094 ft 419 kts 197°
2026-04-27 20:27 8.34433 38.65486 23652 ft 422 kts 197°
2026-04-27 20:28 8.31637 38.64545 24089 ft 426 kts 197°
2026-04-27 20:28 8.28815 38.63593 24500 ft 429 kts 197°
2026-04-27 20:28 8.25977 38.62636 24923 ft 431 kts 197°
2026-04-27 20:28 8.24090 38.62001 25192 ft 433 kts 197°
2026-04-27 20:29 8.20257 38.60713 25733 ft 436 kts 197°
2026-04-27 20:29 8.17368 38.59741 26103 ft 438 kts 197°
2026-04-27 20:29 8.14468 38.58764 26488 ft 441 kts 197°
2026-04-27 20:29 8.11550 38.57778 26870 ft 444 kts 197°
2026-04-27 20:30 8.08654 38.56800 27249 ft 446 kts 197°
2026-04-27 20:30 8.05701 38.55805 27599 ft 448 kts 197°
2026-04-27 20:30 8.02738 38.54805 27963 ft 451 kts 197°
2026-04-27 20:30 7.99751 38.53796 28317 ft 454 kts 197°
2026-04-27 20:31 7.96746 38.52783 28638 ft 457 kts 197°
2026-04-27 20:31 7.93717 38.51763 28959 ft 460 kts 197°
2026-04-27 20:31 7.90672 38.50739 29297 ft 463 kts 197°
2026-04-27 20:31 7.87605 38.49706 29629 ft 465 kts 197°
2026-04-27 20:32 7.84527 38.48672 29950 ft 468 kts 197°
2026-04-27 20:32 7.81430 38.47631 30228 ft 470 kts 197°
2026-04-27 20:32 7.78319 38.46586 30492 ft 472 kts 197°
2026-04-27 20:32 7.75197 38.45535 30759 ft 474 kts 197°
2026-04-27 20:33 7.72061 38.44478 30998 ft 476 kts 197°
2026-04-27 20:33 7.68914 38.43417 31224 ft 478 kts 197°
2026-04-27 20:33 7.65752 38.42349 31485 ft 479 kts 197°
2026-04-27 20:33 7.62600 38.41284 31825 ft 477 kts 197°
2026-04-27 20:34 7.59453 38.40224 32169 ft 476 kts 197°
2026-04-27 20:34 7.56314 38.39169 32519 ft 475 kts 197°
2026-04-27 20:34 7.53184 38.38111 32870 ft 474 kts 198°
2026-04-27 20:34 7.50177 38.36738 33208 ft 475 kts 208°
2026-04-27 20:35 7.47439 38.34877 33567 ft 476 kts 218°
2026-04-27 20:35 7.45036 38.32585 33929 ft 476 kts 227°
2026-04-27 20:35 7.42928 38.30008 34266 ft 476 kts 230°
2026-04-27 20:35 7.40845 38.27425 34572 ft 475 kts 230°
2026-04-27 20:36 7.38755 38.24843 34883 ft 474 kts 230°
2026-04-27 20:36 7.36698 38.22309 35210 ft 473 kts 230°
2026-04-27 20:36 7.34586 38.19710 35535 ft 472 kts 230°
2026-04-27 20:36 7.32536 38.17190 35845 ft 471 kts 230°
2026-04-27 20:37 7.30433 38.14605 36162 ft 470 kts 230°
2026-04-27 20:37 7.28396 38.12093 36455 ft 469 kts 230°
2026-04-27 20:37 7.26307 38.09512 36757 ft 468 kts 230°
2026-04-27 20:37 7.24280 38.07009 37041 ft 467 kts 230°
2026-04-27 20:38 7.22224 38.04473 37330 ft 467 kts 230°
2026-04-27 20:38 7.20170 38.01942 37625 ft 466 kts 230°
2026-04-27 20:38 7.18121 37.99416 37893 ft 465 kts 230°
2026-04-27 20:38 7.16075 37.96892 38083 ft 465 kts 230°
2026-04-27 20:39 7.11984 37.91848 38125 ft 465 kts 230°
2026-04-27 20:39 7.07898 37.86808 38106 ft 465 kts 230°
2026-04-27 20:40 7.03806 37.81767 38106 ft 465 kts 229°
2026-04-27 20:40 6.99701 37.76737 38095 ft 465 kts 229°
2026-04-27 20:41 6.95600 37.71700 38084 ft 465 kts 230°
2026-04-27 20:41 6.91504 37.66652 38079 ft 466 kts 230°
2026-04-27 20:42 6.87202 37.61785 38074 ft 465 kts 219°
2026-04-27 20:42 6.81814 37.58273 38058 ft 462 kts 206°
2026-04-27 20:43 6.76125 37.55243 38060 ft 463 kts 206°
2026-04-27 20:43 6.70447 37.52197 38049 ft 463 kts 207°
2026-04-27 20:44 6.64770 37.49146 38043 ft 463 kts 207°
2026-04-27 20:44 6.59083 37.46100 38034 ft 464 kts 207°
2026-04-27 20:45 6.53375 37.43064 38035 ft 465 kts 207°
2026-04-27 20:45 6.47661 37.40011 38034 ft 465 kts 207°
2026-04-27 20:46 6.41940 37.36952 38038 ft 466 kts 207°
2026-04-27 20:46 6.36213 37.33895 38053 ft 466 kts 207°
2026-04-27 20:47 6.30521 37.30855 38057 ft 466 kts 207°
2026-04-27 20:47 6.24758 37.27780 38067 ft 466 kts 207°
2026-04-27 20:48 6.20009 37.25238 38070 ft 465 kts 207°
2026-04-27 20:48 6.13326 37.21669 38062 ft 465 kts 207°
2026-04-27 20:49 6.07645 37.18635 38066 ft 466 kts 207°
2026-04-27 20:49 6.01923 37.15582 38066 ft 465 kts 206°
2026-04-27 20:50 5.96209 37.12534 38067 ft 465 kts 206°
2026-04-27 20:50 5.90488 37.09485 38068 ft 465 kts 206°
2026-04-27 20:51 5.84778 37.06430 38064 ft 465 kts 206°
2026-04-27 20:51 5.79062 37.03383 38059 ft 465 kts 206°
2026-04-27 20:52 5.73345 37.00345 38058 ft 465 kts 206°
2026-04-27 20:52 5.67619 36.97308 38051 ft 466 kts 206°
2026-04-27 20:53 5.61896 36.94257 38050 ft 466 kts 206°
2026-04-27 20:53 5.56176 36.91195 38029 ft 466 kts 206°
2026-04-27 20:54 5.47585 36.86620 38033 ft 466 kts 206°
2026-04-27 20:55 5.41866 36.83590 38031 ft 464 kts 206°
2026-04-27 20:55 5.36155 36.80555 38025 ft 464 kts 206°
2026-04-27 20:56 5.30454 36.77515 38023 ft 464 kts 206°
2026-04-27 20:56 5.24752 36.74470 38018 ft 464 kts 206°
2026-04-27 20:57 5.19081 36.71455 38016 ft 464 kts 206°
2026-04-27 20:57 5.13368 36.68421 38016 ft 465 kts 206°
2026-04-27 20:58 5.07618 36.65365 38011 ft 465 kts 206°
2026-04-27 20:58 5.01943 36.62346 38008 ft 464 kts 206°
2026-04-27 20:59 4.96198 36.59289 38001 ft 464 kts 206°
2026-04-27 20:59 4.90518 36.56268 38006 ft 465 kts 206°
2026-04-27 21:00 4.84801 36.53228 37985 ft 465 kts 206°
2026-04-27 21:00 4.79094 36.50201 37988 ft 464 kts 206°
2026-04-27 21:01 4.73381 36.47175 37982 ft 464 kts 206°
2026-04-27 21:01 4.67673 36.44150 37978 ft 464 kts 206°
2026-04-27 21:02 4.61970 36.41125 37970 ft 464 kts 206°
2026-04-27 21:02 4.56270 36.38096 37969 ft 463 kts 205°
2026-04-27 21:03 4.50574 36.35071 37954 ft 464 kts 206°
2026-04-27 21:03 4.44877 36.32034 37953 ft 463 kts 206°
2026-04-27 21:04 4.39268 36.29055 37959 ft 463 kts 205°
2026-04-27 21:04 4.33563 36.26049 37959 ft 463 kts 205°
2026-04-27 21:05 4.27859 36.23027 37952 ft 464 kts 205°
2026-04-27 21:05 4.22163 36.20005 37950 ft 463 kts 205°
2026-04-27 21:06 4.16464 36.16994 37944 ft 464 kts 205°
2026-04-27 21:06 4.10771 36.13982 37937 ft 462 kts 205°
2026-04-27 21:07 4.06054 36.11482 37938 ft 462 kts 205°
2026-04-27 21:07 4.00358 36.08461 37928 ft 464 kts 206°
2026-04-27 21:08 3.94646 36.05438 37934 ft 464 kts 205°
2026-04-27 21:08 3.88936 36.02434 37924 ft 463 kts 205°
2026-04-27 21:09 3.83224 35.99423 37927 ft 464 kts 205°
2026-04-27 21:09 3.77517 35.96424 37934 ft 464 kts 205°
2026-04-27 21:10 3.71797 35.93415 37939 ft 464 kts 205°
2026-04-27 21:10 3.66076 35.90405 37949 ft 464 kts 205°
2026-04-27 21:11 3.60352 35.87382 37942 ft 465 kts 206°
2026-04-27 21:11 3.54631 35.84360 37934 ft 465 kts 205°
2026-04-27 21:12 3.48892 35.81343 37935 ft 466 kts 205°
2026-04-27 21:12 3.43150 35.78328 37946 ft 467 kts 205°
2026-04-27 21:13 3.37468 35.75341 37956 ft 468 kts 205°
2026-04-27 21:13 3.31706 35.72309 37959 ft 468 kts 205°
2026-04-27 21:14 3.25949 35.69277 37961 ft 467 kts 205°
2026-04-27 21:14 3.20227 35.66274 37963 ft 468 kts 205°
2026-04-27 21:15 3.14473 35.63248 37955 ft 467 kts 205°
2026-04-27 21:15 3.09068 35.59636 37957 ft 470 kts 221°
2026-04-27 21:16 3.04364 35.55077 37960 ft 472 kts 222°
2026-04-27 21:16 2.99637 35.50523 37953 ft 472 kts 222°
2026-04-27 21:17 2.94908 35.45961 37964 ft 473 kts 222°
2026-04-27 21:17 2.90179 35.41406 37955 ft 472 kts 222°
2026-04-27 21:18 2.85464 35.36847 37963 ft 472 kts 222°
2026-04-27 21:18 2.80741 35.32276 37968 ft 472 kts 222°
2026-04-27 21:19 2.76019 35.27710 37973 ft 472 kts 222°
2026-04-27 21:19 2.71291 35.23150 37983 ft 472 kts 222°
2026-04-27 21:20 2.64264 35.16361 37990 ft 473 kts 222°
2026-04-27 21:20 2.59535 35.11790 38008 ft 472 kts 222°
2026-04-27 21:21 2.54926 35.07343 38014 ft 473 kts 222°
2026-04-27 21:21 2.52539 35.05040 39507 ft 472 kts 224°
2026-04-27 21:21 2.50180 35.02763 39508 ft 471 kts 224°
2026-04-27 21:22 2.46027 34.97861 39503 ft 468 kts 240°
2026-04-27 21:22 2.43686 34.91811 38582 ft 478 kts 259°
2026-04-27 21:23 2.43112 34.88507 38180 ft 484 kts 260°
2026-04-27 21:23 2.42529 34.85184 37962 ft 487 kts 259°
2026-04-27 21:23 2.41323 34.78547 38021 ft 481 kts 259°
2026-04-27 21:24 2.40711 34.75271 36649 ft 477 kts 259°
2026-04-27 21:24 2.40098 34.72008 36856 ft 477 kts 259°
2026-04-27 21:24 2.39489 34.68751 37068 ft 476 kts 259°
2026-04-27 21:24 2.38887 34.65501 37284 ft 475 kts 259°
2026-04-27 21:25 2.38289 34.62253 37492 ft 474 kts 259°
2026-04-27 21:25 2.37695 34.59013 37710 ft 474 kts 259°
2026-04-27 21:25 2.37103 34.55775 37928 ft 473 kts 259°
2026-04-27 21:25 2.36510 34.52544 38052 ft 473 kts 259°
2026-04-27 21:26 2.35322 34.46084 38032 ft 472 kts 259°
2026-04-27 21:26 2.34290 34.40485 38038 ft 472 kts 259°
2026-04-27 21:27 2.33387 34.35588 38039 ft 471 kts 259°
2026-04-27 21:27 2.32209 34.29227 38038 ft 471 kts 259°
2026-04-27 21:28 2.31023 34.22783 38040 ft 471 kts 259°
2026-04-27 21:28 2.29830 34.16335 38041 ft 471 kts 259°
2026-04-27 21:29 2.28648 34.09933 38041 ft 471 kts 259°
2026-04-27 21:29 2.27455 34.03485 38042 ft 472 kts 259°
2026-04-27 21:30 2.26262 33.96996 38038 ft 472 kts 259°
2026-04-27 21:30 2.25083 33.90595 38046 ft 471 kts 259°
2026-04-27 21:31 2.23893 33.84156 38045 ft 471 kts 259°
2026-04-27 21:31 2.22698 33.77722 38044 ft 470 kts 259°
2026-04-27 21:32 2.21508 33.71296 38036 ft 470 kts 259°
2026-04-27 21:32 2.20323 33.64868 38038 ft 471 kts 259°
2026-04-27 21:33 2.19138 33.58409 38050 ft 471 kts 259°
2026-04-27 21:33 2.17957 33.51975 38046 ft 470 kts 259°
2026-04-27 21:34 2.16763 33.45551 38040 ft 470 kts 259°
2026-04-27 21:34 2.15563 33.39137 38040 ft 469 kts 259°
2026-04-27 21:35 2.14375 33.32719 38030 ft 469 kts 259°
2026-04-27 21:35 2.13194 33.26310 38030 ft 469 kts 259°
2026-04-27 21:36 2.12005 33.19895 38029 ft 469 kts 259°
2026-04-27 21:36 2.10808 33.13483 38035 ft 469 kts 260°
2026-04-27 21:37 2.09623 33.07075 38035 ft 469 kts 260°
2026-04-27 21:37 2.08445 33.00673 38034 ft 468 kts 260°
2026-04-27 21:38 2.07265 32.94314 38031 ft 468 kts 260°
2026-04-27 21:38 2.06071 32.87919 38031 ft 468 kts 260°
2026-04-27 21:39 2.04886 32.81514 38015 ft 469 kts 260°
2026-04-27 21:39 2.03700 32.75094 38014 ft 470 kts 260°
2026-04-27 21:40 2.02506 32.68664 38012 ft 469 kts 260°
2026-04-27 21:40 2.01322 32.62256 38000 ft 469 kts 260°
2026-04-27 21:41 2.00139 32.55837 37991 ft 471 kts 259°
2026-04-27 21:41 1.98940 32.49394 37995 ft 472 kts 259°
2026-04-27 21:42 1.97733 32.42941 37995 ft 473 kts 259°
2026-04-27 21:42 1.96531 32.36479 38000 ft 473 kts 260°
2026-04-27 21:43 1.95336 32.30009 38017 ft 473 kts 260°
2026-04-27 21:43 1.94131 32.23544 38016 ft 473 kts 259°
2026-04-27 21:44 1.92928 32.17083 38014 ft 473 kts 259°
2026-04-27 21:44 1.91728 32.10617 38015 ft 473 kts 259°
2026-04-27 21:45 1.90674 32.04125 38022 ft 473 kts 263°
2026-04-27 21:45 1.89967 31.97593 38025 ft 472 kts 265°
2026-04-27 21:46 1.89330 31.91059 38024 ft 472 kts 264°
2026-04-27 21:46 1.88620 31.84540 38018 ft 472 kts 264°
2026-04-27 21:47 1.87851 31.78025 38021 ft 472 kts 263°
2026-04-27 21:47 1.87086 31.71523 38016 ft 471 kts 264°
2026-04-27 21:48 1.86345 31.65028 38013 ft 470 kts 264°
2026-04-27 21:48 1.85609 31.58534 38007 ft 470 kts 264°
2026-04-27 21:49 1.84877 31.52098 38001 ft 469 kts 264°
2026-04-27 21:49 1.84133 31.45628 38000 ft 468 kts 264°
2026-04-27 21:50 1.83386 31.39174 37996 ft 467 kts 264°
2026-04-27 21:50 1.82646 31.32725 38003 ft 467 kts 264°
2026-04-27 21:51 1.81906 31.26284 37998 ft 466 kts 264°
2026-04-27 21:51 1.81166 31.19835 37969 ft 468 kts 264°
2026-04-27 21:52 1.80418 31.13369 37956 ft 469 kts 264°
2026-04-27 21:52 1.79676 31.06886 37962 ft 470 kts 264°
2026-04-27 21:53 1.78909 31.00379 37972 ft 472 kts 261°
2026-04-27 21:53 1.77234 30.94040 37976 ft 473 kts 254°
2026-04-27 21:54 1.75702 30.88793 37972 ft 473 kts 254°
2026-04-27 21:54 1.73867 30.82473 37979 ft 474 kts 254°
2026-04-27 21:55 1.72030 30.76148 37973 ft 474 kts 254°
2026-04-27 21:55 1.70197 30.69807 37969 ft 475 kts 255°
2026-04-27 21:56 1.67440 30.60275 37984 ft 476 kts 254°
2026-04-27 21:57 1.65591 30.53931 37991 ft 475 kts 254°
2026-04-27 21:57 1.63746 30.47588 38016 ft 476 kts 255°
2026-04-27 21:58 1.61906 30.41231 38018 ft 476 kts 255°
2026-04-27 21:58 1.60062 30.34881 38018 ft 476 kts 254°
2026-04-27 21:59 1.58210 30.28525 38002 ft 478 kts 254°
2026-04-27 21:59 1.56366 30.22142 38016 ft 478 kts 256°
2026-04-27 22:00 1.54857 30.15686 38013 ft 477 kts 259°
2026-04-27 22:00 1.53595 30.09176 38014 ft 477 kts 260°
2026-04-27 22:01 1.52302 30.02674 38021 ft 477 kts 259°
2026-04-27 22:01 1.50932 29.96199 38023 ft 477 kts 258°
2026-04-27 22:02 1.49533 29.89708 38018 ft 477 kts 258°
2026-04-27 22:02 1.48145 29.83233 38020 ft 477 kts 258°
2026-04-27 22:03 1.46763 29.76757 38023 ft 475 kts 259°
2026-04-27 22:03 1.45397 29.70313 38025 ft 473 kts 258°
2026-04-27 22:04 1.44026 29.63885 38024 ft 473 kts 258°
2026-04-27 22:04 1.42662 29.57470 38010 ft 472 kts 258°
2026-04-27 22:05 1.41283 29.51068 38014 ft 470 kts 258°
2026-04-27 22:05 1.39892 29.44689 38004 ft 469 kts 258°
2026-04-27 22:06 1.38516 29.38311 37995 ft 469 kts 258°
2026-04-27 22:06 1.37149 29.31937 37994 ft 469 kts 258°
2026-04-27 22:07 1.35774 29.25565 37994 ft 469 kts 258°
2026-04-27 22:07 1.34392 29.19190 37994 ft 469 kts 258°
2026-04-27 22:08 1.33015 29.12829 37988 ft 469 kts 258°
2026-04-27 22:08 1.31646 29.06495 37977 ft 470 kts 258°
2026-04-27 22:09 1.30951 29.03266 37976 ft 470 kts 258°